Glenwood, MN

4:21 AM CST on December 13, 2017 (GMT -0600)
Glenwood Municipal

Weather History for KGHW - July, 2014

Change the Weather History Date:

Tuesday, July 29, 2014

  Actual Average Record
Temperature  
Mean Temperature 65 °F -  
Max Temperature 77 °F 82 °F 97 °F (1988)
Min Temperature 53 °F 57 °F 44 °F (1971)
Growing Degree Days 15 (Base 50)    
Moisture  
Dew Point 54 °F    
Average Humidity 70    
Maximum Humidity 100    
Minimum Humidity 44    
Precipitation  
Precipitation 0.00 in - - ()
Sea Level Pressure  
Sea Level Pressure 30.16 in    
Wind  
Wind Speed 6 mph (NW)    
Max Wind Speed 13 mph    
Max Gust Speed 17 mph    
Visibility 10 miles    
Events      
Averages and records for this station are not official NWS values.
T = Trace of Precipitation, MM = Missing Value Source: NWS Daily Summary

Daily Weather History Graph

Daily Weather History Graph

Search for Another Location

Airport or City:

Trip Planner

Search our weather history database for the weather conditions in past years. The results will help you decide how hot, cold, wet, or windy it might be!

Date:

Astronomy

Jul. 29, 2014 Rise Set
Actual Time 6:01 AM CDT 8:53 PM CDT
Civil Twilight 5:26 AM CDT 9:27 PM CDT
Nautical Twilight 4:42 AM CDT 10:11 PM CDT
Astronomical Twilight 3:50 AM CDT 11:03 PM CDT
Moon 8:49 AM CDT (7/29) 9:54 PM CDT (7/29)
Length of Visible Light 16h 01m
Length of Day
14h 52m
Waxing Crescent, 7% of the Moon is Illuminated
Jul 29
Waxing Crescent
Aug 3
First Quarter
Aug 10
Full
Aug 17
Last Quarter
Aug 25
New

Hourly Weather History & Observations

Time (CDT) Temp. Dew Point Humidity Pressure Visibility Wind Dir Wind Speed Gust Speed Precip Events Conditions
12:14 AM 57.2 °F 53.6 °F 88% 30.20 in 10.0 mi NW 5.8 mph - N/A   Clear
12:34 AM 57.2 °F 53.6 °F 88% 30.20 in 10.0 mi NW 4.6 mph - N/A   Clear
12:54 AM 57.2 °F 53.6 °F 88% 30.20 in 10.0 mi NNW 4.6 mph - N/A   Clear
1:14 AM 57.2 °F 53.6 °F 88% 30.20 in 10.0 mi NNW 5.8 mph - N/A   Clear
1:34 AM 57.2 °F 53.6 °F 88% 30.19 in 10.0 mi NNW 4.6 mph - N/A   Clear
1:54 AM 57.2 °F 53.6 °F 88% 30.19 in 10.0 mi NW 4.6 mph - N/A   Clear
2:14 AM 57.2 °F 53.6 °F 88% 30.19 in 10.0 mi NW 4.6 mph - N/A   Clear
2:34 AM 55.4 °F 53.6 °F 94% 30.19 in 10.0 mi West 3.5 mph - N/A   Clear
2:54 AM 55.4 °F 53.6 °F 94% 30.19 in 10.0 mi WNW 4.6 mph - N/A   Clear
3:14 AM 55.4 °F 51.8 °F 88% 30.18 in 10.0 mi West 5.8 mph - N/A   Clear
3:34 AM 53.6 °F 51.8 °F 94% 30.18 in 10.0 mi West 4.6 mph - N/A   Clear
3:54 AM 55.4 °F 53.6 °F 94% 30.18 in 10.0 mi West 5.8 mph - N/A   Clear
4:14 AM 55.4 °F 53.6 °F 94% 30.19 in 10.0 mi West 5.8 mph - N/A   Clear
4:34 AM 55.4 °F 53.6 °F 94% 30.19 in 10.0 mi West 5.8 mph - N/A   Clear
4:54 AM 53.6 °F 53.6 °F 100% 30.19 in 10.0 mi West 4.6 mph - N/A   Clear
5:14 AM 53.6 °F 51.8 °F 94% 30.18 in 10.0 mi West 5.8 mph - N/A   Clear
5:34 AM 53.6 °F 51.8 °F 94% 30.18 in 10.0 mi West 5.8 mph - N/A   Clear
5:54 AM 53.6 °F 51.8 °F 94% 30.18 in 10.0 mi West 5.8 mph - N/A   Clear
6:14 AM 55.4 °F 53.6 °F 94% 30.18 in 10.0 mi West 5.8 mph - N/A   Clear
6:34 AM 53.6 °F 51.8 °F 94% 30.18 in 10.0 mi West 5.8 mph - N/A   Clear
6:54 AM 55.4 °F 53.6 °F 94% 30.19 in 10.0 mi North - - N/A   Clear
7:14 AM 57.2 °F 55.4 °F 94% 30.19 in 10.0 mi WNW 4.6 mph - N/A   Clear
7:34 AM 59.0 °F 55.4 °F 88% 30.19 in 10.0 mi WNW 4.6 mph - N/A   Clear
7:54 AM 60.8 °F 57.2 °F 88% 30.19 in 10.0 mi WNW 5.8 mph - N/A   Clear
8:14 AM 62.6 °F 57.2 °F 82% 30.19 in 10.0 mi NW 6.9 mph - N/A   Clear
8:34 AM 64.4 °F 57.2 °F 77% 30.19 in 10.0 mi NW 6.9 mph - N/A   Clear
9:14 AM 66.2 °F 57.2 °F 73% 30.19 in 10.0 mi NNW 8.1 mph - N/A   Clear
9:54 AM 69.8 °F 57.2 °F 64% 30.19 in 10.0 mi NNW 9.2 mph - N/A   Clear
10:14 AM 69.8 °F 57.2 °F 64% 30.19 in 10.0 mi North 8.1 mph - N/A   Clear
10:34 AM 71.6 °F 55.4 °F 57% 30.19 in 10.0 mi NW 9.2 mph - N/A   Clear
10:55 AM 71.6 °F 55.4 °F 57% 30.18 in 10.0 mi NW 6.9 mph - N/A   Clear
11:14 AM 71.6 °F 55.4 °F 57% 30.19 in 10.0 mi WNW 8.1 mph - N/A   Scattered Clouds
11:34 AM 71.6 °F 55.4 °F 57% 30.19 in 10.0 mi WNW 6.9 mph - N/A   Scattered Clouds
11:55 AM 71.6 °F 57.2 °F 60% 30.19 in 10.0 mi NW 9.2 mph - N/A   Scattered Clouds
12:14 PM 75.2 °F 55.4 °F 50% 30.18 in 10.0 mi NNW 10.4 mph - N/A   Scattered Clouds
12:34 PM 73.4 °F 55.4 °F 53% 30.18 in 10.0 mi NW 10.4 mph - N/A   Scattered Clouds
12:55 PM 75.2 °F 53.6 °F 47% 30.17 in 10.0 mi NW 10.4 mph - N/A   Scattered Clouds
1:14 PM 75.2 °F 53.6 °F 47% 30.17 in 10.0 mi NW 9.2 mph - N/A   Scattered Clouds
1:34 PM 73.4 °F 53.6 °F 50% 30.17 in 10.0 mi NW 10.4 mph - N/A   Clear
1:54 PM 73.4 °F 53.6 °F 50% 30.16 in 10.0 mi WNW 9.2 mph - N/A   Scattered Clouds
2:14 PM 73.4 °F 55.4 °F 53% 30.16 in 10.0 mi WNW 10.4 mph - N/A   Scattered Clouds
2:34 PM 75.2 °F 55.4 °F 50% 30.15 in 10.0 mi NW 12.7 mph - N/A   Clear
2:54 PM 75.2 °F 53.6 °F 47% 30.15 in 10.0 mi NW 12.7 mph 16.1 mph N/A   Clear
3:14 PM 75.2 °F 53.6 °F 47% 30.15 in 10.0 mi NW 12.7 mph 16.1 mph N/A   Clear
3:34 PM 75.2 °F 53.6 °F 47% 30.15 in 10.0 mi NW 10.4 mph - N/A   Clear
3:54 PM 77.0 °F 53.6 °F 44% 30.14 in 10.0 mi WNW 10.4 mph 17.3 mph N/A   Scattered Clouds
4:14 PM 75.2 °F 53.6 °F 47% 30.14 in 10.0 mi NW 11.5 mph 16.1 mph N/A   Clear
4:35 PM 75.2 °F 53.6 °F 47% 30.14 in 10.0 mi NW 11.5 mph - N/A   Scattered Clouds
5:14 PM 75.2 °F 53.6 °F 47% 30.12 in 10.0 mi NW 10.4 mph - N/A   Scattered Clouds
5:35 PM 75.2 °F 51.8 °F 44% 30.12 in 10.0 mi NW 10.4 mph - N/A   Clear
5:54 PM 75.2 °F 51.8 °F 44% 30.11 in 10.0 mi NW 12.7 mph - N/A   Clear
6:14 PM 75.2 °F 53.6 °F 47% 30.11 in 10.0 mi WNW 11.5 mph - N/A   Clear
6:35 PM 75.2 °F 51.8 °F 44% 30.11 in 10.0 mi WNW 11.5 mph - N/A   Clear
6:54 PM 73.4 °F 53.6 °F 50% 30.11 in 10.0 mi NW 6.9 mph - N/A   Clear
7:14 PM 73.4 °F 53.6 °F 50% 30.10 in 10.0 mi WNW 10.4 mph - N/A   Clear
7:35 PM 71.6 °F 55.4 °F 57% 30.10 in 10.0 mi NW 5.8 mph - N/A   Clear
7:54 PM 71.6 °F 55.4 °F 57% 30.10 in 10.0 mi NW 5.8 mph - N/A   Clear
8:14 PM 68.0 °F 55.4 °F 64% 30.10 in 10.0 mi WNW 5.8 mph - N/A   Clear
8:35 PM 66.2 °F 55.4 °F 68% 30.10 in 10.0 mi WNW 4.6 mph - N/A   Clear
8:54 PM 64.4 °F 55.4 °F 73% 30.10 in 10.0 mi NW 4.6 mph - N/A   Clear
9:14 PM 62.6 °F 55.4 °F 77% 30.10 in 10.0 mi NW 3.5 mph - N/A   Clear
9:35 PM 62.6 °F 55.4 °F 77% 30.11 in 10.0 mi NNW 4.6 mph - N/A   Clear
9:54 PM 62.6 °F 55.4 °F 77% 30.11 in 10.0 mi NNW 3.5 mph - N/A   Clear
10:14 PM 62.6 °F 55.4 °F 77% 30.12 in 10.0 mi NNW 3.5 mph - N/A   Clear
10:34 PM 62.6 °F 55.4 °F 77% 30.12 in 10.0 mi NW 3.5 mph - N/A   Clear
10:54 PM 62.6 °F 55.4 °F 77% 30.12 in 10.0 mi NNW 4.6 mph - N/A   Clear
11:14 PM 62.6 °F 53.6 °F 72% 30.12 in 10.0 mi Calm Calm - N/A   Clear
11:34 PM 60.8 °F 53.6 °F 77% 30.12 in 10.0 mi NNW 4.6 mph - N/A   Clear
11:54 PM 60.8 °F 53.6 °F 77% 30.12 in 10.0 mi NNW 4.6 mph - N/A   Clear